SWA2533 KSLC-KLAX

Flight info

Callsign SWA2533
Flight time 1h 35m
Altitude 36000
Route ZIONZ1 EHK LAKRR HAKMN ANJLL4
Aircraft B738/M-SDE2E3FGHIRWXY/LB1

Departure

Time 2026-04-21 02:41
Airport Salt Lake City International Airport (KSLC)

Arrival

Time 2026-04-21 04:16
Airport Los Angeles International Airport (KLAX)
Time Latitude Longitude Altitude Speed Heading
2026-04-21 02:23 40.78613 -111.98828 4232 ft 2 kts 174°
2026-04-21 02:31 40.78637 -111.98829 4230 ft 4 kts 188°
2026-04-21 02:32 40.78662 -111.98819 4232 ft 4 kts 211°
2026-04-21 02:32 40.78681 -111.98797 4229 ft 5 kts 242°
2026-04-21 02:32 40.78687 -111.98773 4230 ft 0 kts 266°
2026-04-21 02:35 40.78683 -111.98851 4231 ft 17 kts 265°
2026-04-21 02:35 40.78669 -111.99044 4232 ft 20 kts 264°
2026-04-21 02:35 40.78660 -111.99200 4234 ft 13 kts 266°
2026-04-21 02:35 40.78653 -111.99296 4234 ft 10 kts 264°
2026-04-21 02:36 40.78683 -111.99371 4234 ft 9 kts 346°
2026-04-21 02:36 40.78764 -111.99382 4236 ft 18 kts 355°
2026-04-21 02:36 40.78926 -111.99400 4235 ft 25 kts 355°
2026-04-21 02:36 40.79100 -111.99420 4233 ft 25 kts 355°
2026-04-21 02:37 40.79270 -111.99440 4231 ft 25 kts 355°
2026-04-21 02:37 40.79450 -111.99461 4228 ft 26 kts 355°
2026-04-21 02:37 40.79629 -111.99482 4227 ft 25 kts 355°
2026-04-21 02:37 40.79804 -111.99501 4228 ft 25 kts 355°
2026-04-21 02:38 40.79964 -111.99522 4232 ft 22 kts 355°
2026-04-21 02:38 40.80117 -111.99539 4233 ft 21 kts 355°
2026-04-21 02:38 40.80260 -111.99555 4234 ft 21 kts 354°
2026-04-21 02:38 40.80407 -111.99573 4233 ft 21 kts 355°
2026-04-21 02:39 40.80557 -111.99590 4230 ft 22 kts 355°
2026-04-21 02:39 40.80721 -111.99609 4227 ft 21 kts 355°
2026-04-21 02:39 40.80820 -111.99676 4227 ft 11 kts 297°
2026-04-21 02:39 40.80812 -111.99746 4228 ft 7 kts 227°
2026-04-21 02:40 40.80782 -111.99783 4227 ft 5 kts 234°
2026-04-21 02:40 40.80731 -111.99909 4228 ft 17 kts 208°
2026-04-21 02:40 40.80515 -111.99899 4228 ft 58 kts 175°
2026-04-21 02:40 40.79926 -111.99830 4231 ft 111 kts 175°
2026-04-21 02:41 40.79015 -111.99722 4242 ft 150 kts 174°
2026-04-21 02:41 40.77928 -111.99597 4576 ft 162 kts 175°
2026-04-21 02:41 40.76697 -111.99474 4873 ft 194 kts 175°
2026-04-21 02:41 40.75292 -111.99337 5403 ft 210 kts 175°
2026-04-21 02:42 40.73833 -111.99067 6351 ft 209 kts 170°
2026-04-21 02:42 40.72374 -111.98764 7019 ft 217 kts 173°
2026-04-21 02:42 40.70839 -111.98551 7618 ft 227 kts 175°
2026-04-21 02:42 40.69221 -111.98349 8240 ft 240 kts 175°
2026-04-21 02:43 40.67501 -111.98119 8822 ft 257 kts 175°
2026-04-21 02:43 40.65670 -111.97866 9459 ft 270 kts 175°
2026-04-21 02:43 40.63770 -111.97604 10204 ft 278 kts 176°
2026-04-21 02:43 40.61796 -111.97335 10778 ft 292 kts 176°
2026-04-21 02:44 40.59717 -111.97054 11251 ft 308 kts 176°
2026-04-21 02:44 40.57567 -111.96760 11836 ft 319 kts 176°
2026-04-21 02:44 40.55339 -111.96455 12561 ft 325 kts 176°
2026-04-21 02:44 40.53068 -111.96146 13339 ft 330 kts 176°
2026-04-21 02:45 40.50765 -111.95833 14071 ft 335 kts 176°
2026-04-21 02:45 40.48433 -111.95516 14788 ft 339 kts 176°
2026-04-21 02:45 40.46838 -111.95300 15153 ft 342 kts 176°
2026-04-21 02:45 40.43684 -111.95061 16211 ft 345 kts 179°
2026-04-21 02:46 40.42089 -111.94943 16681 ft 348 kts 179°
2026-04-21 02:46 40.38824 -111.94686 17621 ft 353 kts 179°
2026-04-21 02:46 40.36403 -111.94522 18299 ft 357 kts 179°
2026-04-21 02:46 40.33861 -111.94357 18903 ft 361 kts 180°
2026-04-21 02:47 40.31340 -111.94183 19475 ft 365 kts 179°
2026-04-21 02:47 40.28791 -111.94004 20032 ft 369 kts 180°
2026-04-21 02:47 40.26250 -111.93961 20570 ft 370 kts 188°
2026-04-21 02:47 40.23686 -111.94353 21112 ft 374 kts 189°
2026-04-21 02:48 40.21082 -111.94786 21649 ft 378 kts 189°
2026-04-21 02:48 40.18456 -111.95207 22185 ft 382 kts 189°
2026-04-21 02:48 40.15795 -111.95616 22715 ft 387 kts 189°
2026-04-21 02:48 40.13108 -111.96034 23233 ft 391 kts 190°
2026-04-21 02:49 40.10385 -111.96448 23707 ft 395 kts 189°
2026-04-21 02:49 40.07638 -111.96840 24083 ft 399 kts 189°
2026-04-21 02:49 40.04863 -111.97238 24512 ft 402 kts 189°
2026-04-21 02:49 40.02070 -111.97651 24934 ft 406 kts 189°
2026-04-21 02:50 39.99290 -111.98063 25350 ft 409 kts 189°
2026-04-21 02:50 39.96446 -111.98478 25772 ft 412 kts 189°
2026-04-21 02:50 39.93583 -111.98894 26189 ft 416 kts 188°
2026-04-21 02:50 39.91668 -111.99173 26464 ft 418 kts 188°
2026-04-21 02:51 39.87779 -111.99742 27027 ft 422 kts 188°
2026-04-21 02:51 39.84853 -112.00169 27438 ft 425 kts 188°
2026-04-21 02:51 39.81894 -112.00599 27849 ft 427 kts 188°
2026-04-21 02:51 39.78959 -112.01026 28246 ft 430 kts 188°
2026-04-21 02:52 39.75984 -112.01459 28646 ft 433 kts 188°
2026-04-21 02:52 39.72971 -112.01897 29041 ft 436 kts 188°
2026-04-21 02:52 39.69950 -112.02335 29438 ft 438 kts 188°
2026-04-21 02:52 39.66911 -112.02775 29962 ft 438 kts 188°
2026-04-21 02:53 39.63876 -112.03214 30421 ft 436 kts 188°
2026-04-21 02:53 39.60900 -112.03645 30855 ft 436 kts 188°
2026-04-21 02:53 39.57886 -112.04082 31286 ft 435 kts 188°
2026-04-21 02:53 39.54881 -112.04516 31701 ft 434 kts 188°
2026-04-21 02:54 39.51880 -112.04949 32110 ft 434 kts 188°
2026-04-21 02:54 39.48879 -112.05382 32510 ft 434 kts 188°
2026-04-21 02:54 39.45876 -112.05815 32906 ft 433 kts 188°
2026-04-21 02:54 39.42870 -112.06244 33305 ft 433 kts 187°
2026-04-21 02:55 39.39871 -112.06667 33669 ft 433 kts 187°
2026-04-21 02:55 39.36870 -112.07092 34026 ft 433 kts 187°
2026-04-21 02:55 39.33874 -112.07519 34363 ft 433 kts 187°
2026-04-21 02:55 39.30923 -112.07938 34683 ft 432 kts 187°
2026-04-21 02:56 39.27928 -112.08363 34926 ft 432 kts 187°
2026-04-21 02:56 39.19060 -112.09617 35024 ft 428 kts 187°
2026-04-21 02:57 39.16096 -112.10038 35306 ft 429 kts 188°
2026-04-21 02:57 39.13184 -112.10884 35602 ft 429 kts 201°
2026-04-21 02:57 39.10489 -112.12537 35883 ft 429 kts 210°
2026-04-21 02:57 39.07887 -112.14431 35990 ft 431 kts 210°
2026-04-21 02:58 39.02711 -112.18244 36015 ft 428 kts 210°
2026-04-21 02:58 38.97514 -112.22009 36026 ft 429 kts 210°
2026-04-21 02:59 38.93200 -112.25156 36034 ft 430 kts 210°
2026-04-21 02:59 38.87132 -112.29557 36028 ft 431 kts 210°
2026-04-21 03:00 38.82783 -112.32710 36019 ft 430 kts 210°
2026-04-21 03:00 38.77562 -112.36489 36007 ft 430 kts 210°
2026-04-21 03:01 38.72352 -112.40252 36003 ft 430 kts 210°
2026-04-21 03:01 38.67141 -112.44011 35975 ft 427 kts 210°
2026-04-21 03:02 38.62011 -112.47703 35969 ft 422 kts 209°
2026-04-21 03:02 38.56871 -112.51398 35977 ft 425 kts 209°
2026-04-21 03:03 38.51729 -112.55088 35980 ft 424 kts 209°
2026-04-21 03:03 38.49157 -112.56931 35990 ft 425 kts 209°
2026-04-21 03:04 38.41447 -112.62448 35989 ft 424 kts 209°
2026-04-21 03:04 38.36291 -112.66129 36005 ft 425 kts 209°
2026-04-21 03:05 38.31142 -112.69800 36003 ft 423 kts 209°
2026-04-21 03:05 38.25997 -112.73462 35999 ft 423 kts 209°
2026-04-21 03:06 38.20838 -112.77127 35998 ft 425 kts 209°
2026-04-21 03:06 38.15725 -112.80754 35988 ft 421 kts 208°
2026-04-21 03:07 38.10597 -112.84387 35989 ft 422 kts 208°
2026-04-21 03:07 38.05454 -112.88023 35981 ft 423 kts 208°
2026-04-21 03:08 38.00312 -112.91653 35976 ft 422 kts 208°
2026-04-21 03:08 37.95199 -112.95256 36019 ft 423 kts 208°
2026-04-21 03:09 37.90055 -112.98881 36028 ft 423 kts 210°
2026-04-21 03:09 37.87672 -113.01056 36066 ft 424 kts 222°
2026-04-21 03:09 37.85675 -113.03813 36080 ft 425 kts 233°
2026-04-21 03:10 37.84149 -113.07040 36082 ft 427 kts 244°
2026-04-21 03:10 37.83171 -113.10585 36092 ft 429 kts 256°
2026-04-21 03:10 37.82994 -113.18104 36080 ft 432 kts 278°
2026-04-21 03:11 37.83819 -113.21767 36075 ft 436 kts 290°
2026-04-21 03:11 37.84894 -113.25293 36063 ft 432 kts 279°
2026-04-21 03:11 37.85076 -113.29048 36083 ft 427 kts 257°
2026-04-21 03:11 37.84125 -113.32545 36080 ft 421 kts 236°
2026-04-21 03:12 37.82190 -113.35281 36082 ft 418 kts 213°
2026-04-21 03:12 37.79571 -113.36832 36092 ft 417 kts 192°
2026-04-21 03:12 37.76682 -113.37216 36057 ft 419 kts 181°
2026-04-21 03:12 37.73757 -113.37186 36041 ft 419 kts 180°
2026-04-21 03:13 37.67924 -113.37321 36045 ft 419 kts 185°
2026-04-21 03:13 37.62200 -113.38446 36020 ft 419 kts 194°
2026-04-21 03:14 37.56794 -113.41180 36008 ft 420 kts 208°
2026-04-21 03:14 37.51679 -113.44697 35960 ft 414 kts 205°
2026-04-21 03:15 37.46406 -113.47670 35961 ft 416 kts 204°
2026-04-21 03:15 37.41224 -113.50848 35940 ft 416 kts 205°
2026-04-21 03:16 37.35983 -113.53949 35934 ft 415 kts 205°
2026-04-21 03:16 37.30769 -113.57065 35918 ft 414 kts 205°
2026-04-21 03:17 37.25547 -113.60173 35941 ft 414 kts 205°
2026-04-21 03:17 37.20362 -113.63252 35941 ft 415 kts 205°
2026-04-21 03:18 37.15141 -113.66352 35946 ft 415 kts 205°
2026-04-21 03:18 37.09926 -113.69441 35943 ft 414 kts 205°
2026-04-21 03:19 37.04714 -113.72525 35943 ft 414 kts 205°
2026-04-21 03:19 36.99503 -113.75602 35937 ft 414 kts 205°
2026-04-21 03:20 36.94309 -113.78666 35921 ft 412 kts 204°
2026-04-21 03:20 36.89121 -113.81721 35906 ft 412 kts 204°
2026-04-21 03:21 36.83957 -113.84757 35884 ft 413 kts 205°
2026-04-21 03:21 36.78756 -113.87811 35876 ft 412 kts 204°
2026-04-21 03:22 36.73550 -113.90862 35885 ft 420 kts 205°
2026-04-21 03:22 36.68166 -113.94014 35884 ft 430 kts 204°
2026-04-21 03:23 36.62743 -113.97184 35880 ft 430 kts 204°
2026-04-21 03:23 36.57317 -114.00349 35880 ft 431 kts 205°
2026-04-21 03:24 36.51892 -114.03510 35864 ft 431 kts 205°
2026-04-21 03:24 36.46457 -114.06671 35860 ft 431 kts 205°
2026-04-21 03:25 36.41034 -114.09821 35848 ft 429 kts 205°
2026-04-21 03:25 36.35660 -114.12937 35842 ft 429 kts 205°
2026-04-21 03:26 36.30234 -114.16079 35833 ft 431 kts 205°
2026-04-21 03:26 36.24788 -114.19227 35834 ft 431 kts 205°
2026-04-21 03:27 36.19358 -114.22362 35832 ft 431 kts 205°
2026-04-21 03:27 36.13937 -114.25486 35823 ft 425 kts 205°
2026-04-21 03:28 36.08643 -114.28710 35830 ft 425 kts 217°
2026-04-21 03:28 36.04557 -114.34049 35836 ft 427 kts 230°
2026-04-21 03:29 36.00691 -114.39559 35832 ft 428 kts 227°
2026-04-21 03:29 35.96693 -114.44992 35841 ft 427 kts 228°
2026-04-21 03:30 35.92767 -114.50487 35859 ft 427 kts 227°
2026-04-21 03:30 35.88788 -114.55942 35873 ft 427 kts 228°
2026-04-21 03:31 35.84837 -114.61408 35825 ft 428 kts 228°
2026-04-21 03:31 35.80867 -114.66861 35895 ft 427 kts 228°
2026-04-21 03:32 35.76930 -114.72274 35891 ft 427 kts 228°
2026-04-21 03:32 35.72949 -114.77733 35931 ft 427 kts 228°
2026-04-21 03:33 35.68977 -114.83173 35929 ft 427 kts 228°
2026-04-21 03:33 35.64998 -114.88612 35930 ft 427 kts 227°
2026-04-21 03:34 35.61017 -114.94047 35931 ft 427 kts 227°
2026-04-21 03:34 35.57067 -114.99430 35926 ft 426 kts 227°
2026-04-21 03:35 35.53101 -115.04827 35945 ft 424 kts 228°
2026-04-21 03:35 35.49097 -115.10142 35945 ft 424 kts 226°
2026-04-21 03:36 35.45076 -115.15461 35944 ft 424 kts 227°
2026-04-21 03:36 35.41038 -115.20707 35944 ft 425 kts 226°
2026-04-21 03:37 35.36991 -115.25992 35946 ft 426 kts 227°
2026-04-21 03:37 35.32928 -115.31278 35953 ft 426 kts 226°
2026-04-21 03:38 35.28889 -115.36527 35951 ft 420 kts 226°
2026-04-21 03:38 35.24912 -115.41688 35940 ft 415 kts 226°
2026-04-21 03:39 35.21617 -115.45956 35940 ft 415 kts 226°
2026-04-21 03:39 35.16970 -115.51969 35925 ft 415 kts 226°
2026-04-21 03:40 35.13023 -115.57067 35917 ft 415 kts 226°
2026-04-21 03:40 35.09039 -115.62179 35919 ft 414 kts 226°
2026-04-21 03:41 35.05057 -115.67264 35910 ft 413 kts 226°
2026-04-21 03:41 35.01760 -115.71480 35906 ft 412 kts 226°
2026-04-21 03:42 34.97123 -115.77390 35890 ft 413 kts 226°
2026-04-21 03:42 34.93145 -115.82455 35879 ft 412 kts 225°
2026-04-21 03:43 34.89191 -115.87481 35724 ft 415 kts 225°
2026-04-21 03:43 34.87868 -115.89161 35512 ft 415 kts 225°
2026-04-21 03:43 34.85880 -115.91685 35196 ft 413 kts 225°
2026-04-21 03:44 34.83855 -115.94253 34897 ft 426 kts 226°
2026-04-21 03:44 34.81113 -115.97727 34504 ft 421 kts 226°
2026-04-21 03:44 34.79113 -116.00259 34192 ft 419 kts 226°
2026-04-21 03:44 34.77069 -116.02845 33883 ft 419 kts 226°
2026-04-21 03:45 34.75085 -116.05368 33548 ft 417 kts 226°
2026-04-21 03:45 34.73100 -116.07911 33199 ft 410 kts 226°
2026-04-21 03:45 34.72438 -116.08758 33083 ft 407 kts 226°
2026-04-21 03:45 34.69239 -116.12828 32502 ft 394 kts 226°
2026-04-21 03:46 34.67961 -116.14450 32271 ft 390 kts 226°
2026-04-21 03:46 34.66725 -116.16020 32044 ft 386 kts 225°
2026-04-21 03:46 34.64891 -116.18354 31701 ft 380 kts 225°
2026-04-21 03:46 34.62488 -116.21405 31310 ft 372 kts 225°
2026-04-21 03:47 34.60712 -116.23658 31022 ft 366 kts 225°
2026-04-21 03:47 34.58963 -116.25875 30753 ft 361 kts 225°
2026-04-21 03:47 34.57225 -116.28076 30446 ft 362 kts 225°
2026-04-21 03:47 34.55448 -116.30326 30152 ft 375 kts 225°
2026-04-21 03:48 34.53625 -116.32632 29893 ft 378 kts 225°
2026-04-21 03:48 34.51809 -116.34930 29873 ft 378 kts 225°
2026-04-21 03:48 34.48142 -116.39562 29885 ft 380 kts 225°
2026-04-21 03:49 34.44476 -116.44187 29878 ft 380 kts 225°
2026-04-21 03:49 34.41091 -116.49095 29913 ft 383 kts 239°
2026-04-21 03:50 34.38731 -116.54884 29903 ft 392 kts 242°
2026-04-21 03:50 34.36314 -116.60775 29895 ft 384 kts 240°
2026-04-21 03:51 34.33900 -116.66589 29918 ft 387 kts 242°
2026-04-21 03:51 34.31538 -116.72437 29893 ft 387 kts 242°
2026-04-21 03:52 34.30377 -116.75355 29733 ft 387 kts 242°
2026-04-21 03:52 34.29200 -116.78279 29419 ft 386 kts 242°
2026-04-21 03:52 34.28021 -116.81194 29116 ft 384 kts 242°
2026-04-21 03:52 34.26847 -116.84101 28844 ft 384 kts 242°
2026-04-21 03:53 34.25681 -116.86999 28451 ft 381 kts 242°
2026-04-21 03:53 34.24526 -116.89862 27946 ft 378 kts 241°
2026-04-21 03:53 34.23374 -116.92710 27444 ft 374 kts 241°
2026-04-21 03:53 34.22235 -116.95524 26958 ft 371 kts 241°
2026-04-21 03:54 34.21132 -116.98327 26484 ft 369 kts 245°
2026-04-21 03:54 34.20287 -117.01257 26040 ft 367 kts 249°
2026-04-21 03:54 34.19515 -117.04194 25581 ft 365 kts 249°
2026-04-21 03:54 34.18749 -117.07098 25157 ft 362 kts 249°
2026-04-21 03:55 34.17964 -117.09977 24730 ft 359 kts 248°
2026-04-21 03:55 34.17178 -117.12837 24310 ft 356 kts 248°
2026-04-21 03:55 34.16392 -117.15728 23306 ft 369 kts 249°
2026-04-21 03:55 34.15586 -117.18687 22716 ft 368 kts 248°
2026-04-21 03:56 34.14800 -117.21552 22378 ft 362 kts 248°
2026-04-21 03:56 34.14009 -117.24417 21946 ft 357 kts 248°
2026-04-21 03:56 34.13229 -117.27246 21514 ft 353 kts 248°
2026-04-21 03:56 34.12457 -117.30048 21087 ft 349 kts 248°
2026-04-21 03:57 34.11694 -117.32815 20672 ft 345 kts 248°
2026-04-21 03:57 34.10938 -117.35551 20250 ft 341 kts 248°
2026-04-21 03:57 34.10232 -117.38272 19837 ft 339 kts 250°
2026-04-21 03:57 34.09560 -117.40982 19430 ft 335 kts 249°
2026-04-21 03:58 34.08872 -117.43651 19025 ft 332 kts 249°
2026-04-21 03:58 34.08197 -117.46317 18633 ft 330 kts 249°
2026-04-21 03:58 34.07543 -117.48956 18272 ft 327 kts 249°
2026-04-21 03:58 34.07038 -117.51635 17821 ft 327 kts 255°
2026-04-21 03:59 34.06648 -117.54352 17030 ft 334 kts 256°
2026-04-21 03:59 34.06253 -117.57137 16285 ft 338 kts 256°
2026-04-21 03:59 34.05838 -117.59952 15627 ft 342 kts 256°
2026-04-21 04:00 34.05034 -117.65401 15153 ft 321 kts 256°
2026-04-21 04:00 34.04644 -117.68033 14835 ft 316 kts 256°
2026-04-21 04:00 34.04259 -117.70628 14476 ft 312 kts 256°
2026-04-21 04:00 34.03878 -117.73196 14125 ft 308 kts 256°
2026-04-21 04:01 34.03503 -117.75729 13729 ft 306 kts 256°
2026-04-21 04:01 34.03132 -117.78241 13303 ft 304 kts 256°
2026-04-21 04:01 34.02769 -117.80711 12881 ft 302 kts 256°
2026-04-21 04:01 34.02405 -117.83194 12452 ft 300 kts 256°
2026-04-21 04:02 34.02043 -117.85667 12099 ft 297 kts 256°
2026-04-21 04:02 34.01697 -117.88063 12061 ft 283 kts 256°
2026-04-21 04:02 34.01373 -117.90345 11930 ft 273 kts 256°
2026-04-21 04:02 34.01052 -117.92616 11502 ft 275 kts 256°
2026-04-21 04:03 34.00523 -117.94802 11125 ft 270 kts 234°
2026-04-21 04:03 33.99249 -117.96419 10770 ft 265 kts 217°
2026-04-21 04:03 33.97751 -117.97721 10397 ft 266 kts 213°
2026-04-21 04:03 33.96232 -117.98925 9987 ft 249 kts 211°
2026-04-21 04:04 33.94843 -118.00014 9494 ft 229 kts 211°
2026-04-21 04:04 33.93545 -118.01034 8986 ft 216 kts 211°
2026-04-21 04:04 33.92294 -118.02016 8485 ft 223 kts 211°
2026-04-21 04:04 33.90910 -118.03092 8034 ft 248 kts 211°
2026-04-21 04:05 33.89433 -118.04232 7575 ft 254 kts 211°
2026-04-21 04:05 33.87935 -118.05385 7115 ft 257 kts 211°
2026-04-21 04:05 33.86466 -118.06512 6646 ft 242 kts 211°
2026-04-21 04:05 33.85073 -118.07579 6077 ft 234 kts 211°
2026-04-21 04:06 33.83704 -118.08615 5570 ft 231 kts 212°
2026-04-21 04:06 33.82338 -118.09629 5067 ft 230 kts 212°
2026-04-21 04:06 33.80973 -118.10623 4565 ft 229 kts 212°
2026-04-21 04:06 33.79611 -118.11600 4107 ft 227 kts 211°
2026-04-21 04:07 33.78252 -118.12566 4074 ft 230 kts 209°
2026-04-21 04:07 33.76712 -118.12893 4065 ft 231 kts 170°
2026-04-21 04:07 33.75341 -118.11916 4009 ft 235 kts 130°
2026-04-21 04:07 33.74790 -118.10062 4068 ft 240 kts 90°
2026-04-21 04:08 33.75338 -118.08191 4049 ft 239 kts 50°
2026-04-21 04:08 33.76739 -118.07159 4048 ft 240 kts 10°
2026-04-21 04:08 33.78394 -118.07124 4048 ft 238 kts 354°
2026-04-21 04:08 33.80038 -118.07346 3984 ft 238 kts 348°
2026-04-21 04:09 33.81569 -118.07990 3878 ft 235 kts 333°
2026-04-21 04:09 33.83037 -118.08844 3768 ft 234 kts 332°
2026-04-21 04:09 33.84491 -118.09735 3644 ft 235 kts 332°
2026-04-21 04:09 33.85945 -118.10641 3644 ft 237 kts 331°
2026-04-21 04:10 33.87399 -118.11549 3644 ft 236 kts 332°
2026-04-21 04:10 33.88847 -118.12460 3623 ft 236 kts 331°
2026-04-21 04:10 33.90296 -118.13372 3400 ft 233 kts 331°
2026-04-21 04:10 33.91688 -118.14242 3123 ft 214 kts 334°
2026-04-21 04:11 33.93030 -118.14742 2842 ft 186 kts 343°
2026-04-21 04:11 33.94229 -118.15251 2638 ft 181 kts 336°
2026-04-21 04:11 33.95320 -118.15938 2425 ft 178 kts 315°
2026-04-21 04:11 33.95842 -118.17224 2239 ft 174 kts 275°
2026-04-21 04:12 33.95750 -118.18649 2079 ft 172 kts 261°
2026-04-21 04:12 33.95592 -118.20041 2085 ft 167 kts 261°
2026-04-21 04:12 33.95446 -118.21421 2016 ft 163 kts 262°
2026-04-21 04:12 33.95308 -118.22781 1965 ft 168 kts 262°
2026-04-21 04:13 33.95168 -118.24165 1883 ft 165 kts 262°
2026-04-21 04:13 33.95028 -118.25543 1761 ft 165 kts 262°
2026-04-21 04:13 33.94896 -118.26858 1617 ft 147 kts 262°
2026-04-21 04:13 33.94771 -118.28093 1474 ft 147 kts 262°
2026-04-21 04:14 33.94650 -118.29283 1434 ft 145 kts 261°
2026-04-21 04:14 33.94527 -118.30500 1379 ft 146 kts 261°
2026-04-21 04:14 33.94402 -118.31726 1293 ft 149 kts 262°
2026-04-21 04:14 33.94277 -118.32964 1134 ft 145 kts 261°
2026-04-21 04:15 33.94153 -118.34181 953 ft 146 kts 262°
2026-04-21 04:15 33.94037 -118.35317 745 ft 128 kts 262°
2026-04-21 04:15 33.93930 -118.36374 537 ft 124 kts 263°
2026-04-21 04:15 33.93825 -118.37403 358 ft 122 kts 263°
2026-04-21 04:16 33.93733 -118.38360 217 ft 115 kts 264°
2026-04-21 04:16 33.93639 -118.39198 125 ft 85 kts 261°
2026-04-21 04:16 33.93581 -118.39802 127 ft 61 kts 263°
2026-04-21 04:16 33.93541 -118.40198 124 ft 36 kts 265°
2026-04-21 04:17 33.93545 -118.40447 125 ft 25 kts 278°
2026-04-21 04:17 33.93582 -118.40596 124 ft 7 kts 294°
2026-04-21 04:17 33.93583 -118.40599 124 ft 0 kts 292°
2026-04-21 04:18 33.93592 -118.40628 125 ft 13 kts 285°
2026-04-21 04:18 33.93590 -118.40765 125 ft 12 kts 256°
2026-04-21 04:18 33.93615 -118.40861 125 ft 12 kts 309°
2026-04-21 04:18 33.93732 -118.40905 124 ft 18 kts 354°
2026-04-21 04:19 33.93760 -118.40908 125 ft 0 kts 355°
2026-04-21 04:19 33.93772 -118.40904 125 ft 5 kts 24°
2026-04-21 04:20 33.93783 -118.40883 126 ft 4 kts 68°
2026-04-21 04:20 33.93793 -118.40828 127 ft 10 kts 81°
2026-04-21 04:20 33.93805 -118.40721 124 ft 14 kts 83°
2026-04-21 04:20 33.93817 -118.40604 127 ft 13 kts 84°
2026-04-21 04:21 33.93827 -118.40496 123 ft 13 kts 83°
2026-04-21 04:21 33.93838 -118.40393 123 ft 12 kts 83°
2026-04-21 04:21 33.93850 -118.40308 125 ft 8 kts 63°
2026-04-21 04:21 33.93888 -118.40288 124 ft 7 kts 359°
2026-04-21 04:22 33.93966 -118.40300 124 ft 13 kts 353°
2026-04-21 04:22 33.94021 -118.40309 124 ft 3 kts 355°
2026-04-21 04:22 33.94030 -118.40306 125 ft 3 kts 17°
2026-04-21 04:22 33.94043 -118.40261 123 ft 4 kts 84°
2026-04-21 04:23 33.94044 -118.40253 127 ft 0 kts 83°